Wind_Speed
18 19 20 22 23 25 26 27 28 28 28 29 30 31 31 32 32 32 33 34 35 36 37 38 39 40 41 42 43 44 45 47 48 48 47 47 45 44 43 42 42 39 38 36
18 19 20 22 23 25 26 26 27 27 27 28 29 30 30 30 31 31 32 33 34 36 37 38 39 40 41 42 42 43 44 45 46 47 47 48 48 47 45 44 44 42 39 38
17 19 20 22 23 24 25 25 26 26 26 27 28 28 28 29 29 30 31 32 33 34 35 35 37 38 38 39 40 41 42 43 44 45 46 46 47 47 46 45 44 43 42 39
16 17 19 19 20 21 22 22 23 23 23 24 24 27 26 27 28 28 29 30 31 31 31 31 32 34 35 36 37 38 39 39 40 42 43 43 44 44 44 44 44 42 41 41
13 14 16 18 19 20 20 20 20 21 22 23 23 24 25 24 25 25 26 26 27 28 28 29 29 30 30 31 31 32 33 35 36 38 39 39 40 40 41 42 42 42 40 39
12 14 15 17 17 18 18 19 20 20 21 21 21 21 22 21 21 21 22 23 23 23 24 24 25 25 25 25 25 27 29 30 31 32 33 34 35 36 36 37 38 39 39 38
10 12 13 15 16 17 17 18 19 19 19 19 19 18 19 18 18 18 18 19 19 19 20 20 20 20 20 20 21 21 22 22 24 24 26 27 28 30 31 33 35 35 36 35
9 11 13 14 15 16 15 16 16 17 17 17 16 16 17 17 17 16 16 17 17 16 16 17 17 16 16 16 16 15 15 15 15 15 17 19 21 23 25 27 29 31 32 33
9 11 13 14 14 14 14 14 14 14 14 14 14 15 15 15 15 16 17 17 16 15 15 16 17 15 13 12 13 12 12 11 9 8 8 10 13 15 18 21 24 26 29 29
9 10 12 12 13 13 13 13 13 13 13 13 13 14 14 15 15 16 16 16 15 15 15 16 16 14 13 13 13 12 11 8 6 4 3 3 6 9 12 15 17 20 21 23
10 10 11 12 13 13 13 13 13 13 12 13 13 13 13 13 14 14 14 15 15 15 15 15 15 15 14 14 14 13 12 10 8 6 4 2 1 3 6 9 12 14 16 18
11 11 12 13 13 13 13 13 13 13 13 13 13 13 13 13 14 14 14 15 16 16 16 17 17 18 17 17 16 16 15 13 12 10 7 5 3 1 1 4 6 9 12 14
12 12 13 13 14 14 14 13 14 14 13 13 14 13 13 13 14 15 15 16 17 18 19 19 19 20 20 19 19 18 18 16 14 12 10 7 6 4 1 1 2 4 6 9
13 13 14 14 14 15 14 14 14 14 14 14 14 14 14 14 14 14 15 16 18 18 19 21 21 21 20 20 20 19 19 18 18 16 14 12 10 8 6 4 1 2 3 5
13 14 14 15 15 15 16 15 14 14 14 14 14 14 14 14 15 15 15 17 18 18 19 20 21 21 21 21 21 20 20 20 19 18 17 15 13 11 9 7 5 4 2 3
14 14 14 15 15 16 17 16 15 14 15 15 15 15 15 15 15 16 16 16 17 18 19 19 20 21 21 21 21 20 20 20 20 18 17 16 15 14 12 11 9 7 5 4
13 14 14 14 15 15 16 16 15 15 15 16 16 15 15 15 16 16 17 17 18 19 19 20 20 21 21 21 20 20 20 20 19 19 18 17 15 14 13 12 11 9 8 7
11 13 14 13 14 14 14 15 15 15 15 15 15 14 14 15 15 15 16 17 18 18 19 19 20 21 21 21 21 20 20 20 20 20 19 18 17 16 15 14 13 12 10 9
9 11 12 13 13 13 13 13 13 13 13 14 13 13 13 14 14 15 15 16 16 17 18 18 19 19 20 20 20 20 20 20 20 20 20 19 18 17 16 16 14 13 12 11
6 8 10 11 11 12 12 11 11 11 11 12 12 12 12 13 13 14 14 15 16 16 16 17 17 18 19 19 19 19 20 20 20 20 20 20 19 18 18 17 17 16 14 13
4 5 7 8 9 10 11 10 10 10 9 9 10 11 11 12 12 12 13 13 14 15 15 16 16 17 17 18 19 19 20 20 20 20 20 20 20 19 19 19 18 17 16 15
4 4 5 6 7 8 8 9 9 9 8 8 8 9 9 10 11 11 12 12 13 14 15 15 16 16 17 17 18 18 19 20 20 20 20 20 20 20 20 19 19 19 17 16
6 5 5 5 5 6 7 7 8 8 8 8 7 7 8 8 9 10 10 11 11 12 13 14 15 15 16 17 17 18 19 19 20 21 21 21 21 21 20 20 19 19 19 18
9 8 7 6 6 6 6 6 7 7 8 8 7 7 7 7 8 8 9 9 10 10 11 12 13 14 15 15 16 17 18 18 19 20 21 21 20 20 21 20 20 20 20 19
11 11 10 9 8 8 7 7 7 7 7 8 8 8 8 7 8 8 8 9 9 9 10 10 11 12 13 14 15 16 17 17 18 19 20 20 20 20 20 20 20 20 20 20
14 13 13 12 11 10 10 9 8 8 7 7 8 8 8 8 8 8 8 8 8 8 9 9 10 10 11 12 13 14 15 16 17 18 18 19 19 19 19 19 20 20 20 20
Wind_Direction
255 264 272 279 283 286 288 290 290 291 291 291 291 291 290 289 286 284 282 281 280 279 278 276 275 274 273 272 269 268 267 266 265 264 262 260 259 258 257 257 257 257 258 257
262 270 278 283 286 289 291 292 292 293 293 293 293 292 291 290 288 286 284 283 283 282 281 280 278 277 275 274 273 271 270 268 267 265 263 262 261 259 258 258 257 257 257 256
268 277 283 287 291 293 295 295 295 296 296 297 298 297 296 294 292 290 289 288 287 286 285 283 281 280 280 278 277 275 273 271 269 266 264 262 261 261 259 257 257 256 254 255
275 282 288 293 297 300 299 299 300 301 303 305 306 304 302 300 298 297 296 295 294 293 291 289 287 286 285 283 280 278 276 273 270 267 265 262 260 259 258 257 255 255 254 253
281 289 296 300 303 304 304 306 307 308 309 308 309 306 307 306 305 304 303 302 301 299 299 298 296 294 292 288 284 282 279 276 272 269 265 262 259 257 256 254 252 252 253 253
292 300 305 307 309 311 312 313 313 313 314 313 313 312 314 314 313 311 309 308 308 308 308 306 303 301 297 295 291 288 286 282 276 271 265 261 257 254 251 250 249 249 250 250
307 312 314 316 316 317 319 321 323 325 326 322 321 320 322 323 323 322 320 319 319 319 320 319 316 311 306 303 300 297 295 291 284 275 266 259 254 251 247 247 246 246 246 247
321 323 325 326 326 328 331 332 332 332 331 332 333 332 332 333 334 333 335 336 334 334 335 336 334 329 323 320 316 311 308 305 295 281 270 258 249 245 242 242 242 242 243 243
336 335 336 337 337 339 341 341 341 341 343 344 344 345 346 347 350 352 352 352 352 350 349 348 350 347 344 345 344 338 332 326 316 300 280 256 244 238 237 236 237 237 238 239
353 349 349 350 349 349 349 351 353 355 357 356 354 354 354 356 360 2 3 3 3 2 1 1 2 2 3 2 1 0 1 359 353 353 340 282 254 238 233 232 233 231 232 235
10 5 2 1 2 1 359 1 3 4 4 3 1 0 1 3 4 7 9 12 14 15 16 14 17 17 18 20 21 25 21 23 27 32 31 8 296 247 230 226 230 229 228 230
23 19 14 13 12 11 10 12 13 13 12 12 11 12 15 16 19 22 25 26 28 30 32 33 34 33 35 36 36 34 34 36 40 40 38 43 35 24 232 233 234 230 231 232
32 28 23 21 21 19 20 22 23 23 22 22 23 25 27 31 34 37 38 38 39 42 43 44 44 43 44 45 45 41 41 42 41 40 40 42 51 51 54 223 226 230 228 233
37 33 29 27 26 25 26 28 29 30 30 30 31 33 35 39 43 44 44 45 46 49 48 46 46 45 46 48 48 48 47 47 47 49 49 52 53 53 53 55 62 253 240 243
40 37 35 34 33 31 32 33 34 36 36 36 36 38 41 45 49 49 49 50 51 51 49 48 48 48 49 50 50 50 49 48 46 48 46 45 45 44 44 41 35 26 4 303
42 40 38 38 36 35 35 37 40 40 40 40 43 47 49 52 53 53 53 52 51 50 50 49 49 48 49 50 49 48 47 46 46 44 42 40 41 42 38 34 29 21 7 346
43 40 38 38 37 37 38 39 42 44 45 47 49 53 55 55 55 55 54 53 51 51 51 50 50 50 49 49 48 46 46 44 42 41 39 40 40 39 36 33 27 21 12 2
40 38 38 37 36 37 36 40 43 45 47 50 53 55 56 55 55 54 54 55 54 53 52 50 49 48 47 47 47 45 43 41 40 39 38 37 36 35 33 30 28 25 21 12
35 34 35 35 35 36 35 38 40 43 48 49 50 52 54 55 54 54 54 54 52 50 48 47 46 45 44 45 44 42 41 39 39 37 36 35 33 32 30 29 27 25 23 20
25 28 29 30 32 32 32 34 36 40 46 46 48 49 51 51 50 50 50 48 45 44 44 44 43 41 41 41 41 40 39 37 37 35 34 33 33 32 31 30 29 27 26 24
352 9 17 21 24 27 27 29 31 36 38 41 42 44 46 46 45 44 43 42 41 42 42 41 40 39 40 40 40 39 38 37 36 35 34 33 33 34 33 32 31 29 29 28
297 322 347 1 10 15 16 20 24 25 27 30 31 33 35 37 37 37 37 38 38 39 40 40 39 39 40 40 39 39 38 37 36 35 35 34 34 35 34 33 32 32 32 32
274 285 296 318 340 354 2 7 9 12 15 16 16 17 20 22 25 27 30 32 33 34 35 37 38 39 39 39 39 38 37 37 36 35 35 36 36 36 36 35 35 35 36 38
265 270 275 282 295 314 332 344 351 354 358 1 1 2 3 7 10 13 17 21 23 25 27 29 32 35 36 37 36 36 36 36 36 36 36 36 37 37 37 37 38 39 41 43
261 263 267 270 274 283 297 312 323 333 340 345 349 350 352 356 359 2 5 9 14 17 20 23 27 30 32 34 34 34 34 34 34 35 35 36 36 37 38 39 40 41 43 45
259 260 262 265 268 271 278 287 296 305 315 326 333 338 342 345 348 351 353 358 2 7 11 14 17 21 24 27 30 31 31 31 32 33 34 35 36 38 39 40 42 43 44 46
Height
5915 5916 5914 5913 5911 5910 5907 5904 5902 5899 5896 5893 5890 5887 5884 5881 5879 5876 5874 5871 5869 5866 5864 5862 5860 5858 5857 5856 5854 5853 5852 5852 5851 5851 5852 5853 5853 5854 5855 5856 5857 5859 5860 5862
5913 5912 5911 5909 5907 5904 5902 5899 5896 5893 5890 5887 5884 5881 5877 5874 5871 5869 5866 5863 5861 5858 5855 5852 5850 5848 5846 5845 5843 5842 5841 5840 5839 5839 5840 5841 5842 5844 5845 5846 5848 5849 5852 5854
5910 5909 5906 5905 5902 5899 5897 5894 5890 5888 5884 5881 5878 5875 5871 5867 5864 5861 5858 5855 5852 5849 5846 5843 5841 5838 5836 5834 5832 5830 5829 5828 5827 5827 5828 5829 5830 5832 5834 5836 5838 5840 5843 5845
5906 5905 5903 5900 5898 5895 5892 5889 5886 5882 5879 5876 5873 5869 5866 5861 5858 5854 5851 5848 5844 5841 5838 5834 5831 5829 5826 5823 5821 5819 5817 5816 5815 5815 5816 5817 5819 5820 5823 5825 5828 5830 5833 5836
5903 5901 5899 5897 5894 5891 5888 5884 5881 5878 5875 5871 5868 5864 5860 5856 5852 5849 5845 5841 5837 5834 5830 5827 5823 5820 5817 5814 5811 5809 5807 5805 5804 5803 5804 5805 5807 5809 5811 5814 5817 5820 5824 5827
5900 5898 5896 5893 5890 5887 5884 5881 5877 5874 5871 5867 5863 5860 5856 5852 5848 5844 5840 5836 5832 5828 5824 5820 5816 5813 5809 5806 5803 5800 5798 5795 5794 5793 5793 5794 5795 5798 5801 5804 5807 5811 5814 5818
5898 5896 5893 5890 5887 5884 5881 5878 5874 5870 5867 5863 5859 5856 5853 5848 5844 5840 5836 5832 5828 5824 5820 5816 5811 5807 5804 5800 5797 5793 5790 5787 5785 5784 5784 5784 5786 5788 5791 5795 5798 5802 5805 5809
5896 5894 5891 5887 5884 5881 5877 5875 5873 5869 5865 5860 5856 5853 5850 5845 5841 5837 5833 5829 5825 5821 5817 5813 5808 5804 5800 5796 5792 5788 5785 5782 5779 5778 5777 5777 5779 5781 5784 5787 5790 5794 5797 5800
5894 5892 5888 5885 5881 5879 5875 5872 5870 5867 5862 5859 5855 5851 5848 5843 5839 5835 5831 5827 5823 5819 5815 5811 5806 5802 5798 5793 5790 5786 5783 5780 5777 5775 5774 5774 5775 5777 5779 5781 5784 5787 5790 5793
5893 5890 5887 5884 5881 5877 5874 5871 5868 5864 5861 5858 5854 5850 5847 5842 5839 5834 5831 5827 5823 5819 5814 5810 5806 5801 5797 5793 5790 5786 5783 5779 5777 5775 5774 5774 5774 5774 5776 5778 5780 5782 5784 5787
5891 5889 5887 5883 5880 5876 5874 5870 5867 5864 5860 5857 5854 5852 5847 5843 5839 5835 5831 5828 5824 5819 5815 5811 5806 5802 5798 5794 5791 5787 5784 5781 5778 5777 5775 5774 5774 5775 5775 5776 5777 5779 5781 5783
5891 5889 5886 5883 5879 5876 5873 5870 5867 5864 5860 5857 5854 5854 5846 5843 5839 5836 5832 5829 5825 5821 5817 5812 5808 5804 5800 5796 5793 5790 5787 5784 5781 5779 5778 5776 5776 5776 5776 5776 5776 5777 5778 5780
5891 5889 5886 5883 5881 5877 5873 5870 5867 5864 5860 5857 5854 5854 5847 5844 5841 5837 5834 5831 5827 5823 5819 5815 5811 5807 5804 5800 5797 5794 5791 5788 5785 5783 5781 5779 5778 5777 5776 5776 5776 5776 5777 5778
5891 5889 5887 5885 5881 5877 5874 5871 5867 5865 5861 5858 5855 5853 5849 5846 5843 5840 5836 5833 5830 5826 5823 5819 5815 5811 5808 5804 5801 5798 5795 5792 5789 5786 5784 5782 5781 5779 5778 5777 5777 5776 5776 5777
5893 5890 5887 5885 5882 5878 5875 5872 5869 5866 5863 5860 5857 5854 5851 5848 5845 5842 5839 5836 5833 5830 5827 5823 5819 5816 5812 5809 5806 5803 5800 5797 5793 5791 5788 5786 5783 5782 5780 5779 5777 5776 5776 5775
5894 5892 5889 5886 5883 5880 5877 5873 5870 5868 5865 5862 5859 5857 5853 5851 5848 5845 5842 5840 5837 5833 5830 5827 5824 5820 5817 5813 5810 5807 5804 5801 5798 5795 5792 5789 5786 5784 5782 5780 5778 5776 5775 5774
5895 5893 5890 5888 5885 5882 5879 5876 5873 5870 5867 5865 5862 5860 5856 5854 5851 5849 5846 5843 5840 5837 5834 5831 5828 5825 5821 5818 5815 5811 5808 5805 5802 5799 5795 5792 5789 5787 5784 5781 5779 5777 5775 5773
5896 5894 5892 5889 5888 5884 5884 5878 5876 5873 5870 5867 5864 5862 5860 5857 5855 5852 5849 5847 5844 5841 5838 5835 5832 5829 5826 5822 5819 5816 5812 5809 5805 5802 5799 5795 5792 5789 5786 5783 5780 5778 5775 5773
5897 5895 5893 5891 5888 5886 5884 5881 5878 5875 5873 5870 5868 5865 5863 5860 5858 5856 5853 5850 5848 5845 5842 5839 5836 5833 5830 5826 5823 5820 5816 5813 5809 5805 5802 5798 5795 5792 5788 5785 5782 5779 5776 5773
5897 5896 5894 5892 5890 5888 5887 5883 5880 5879 5876 5873 5870 5868 5865 5863 5861 5859 5856 5853 5851 5848 5845 5842 5839 5836 5833 5830 5826 5823 5820 5816 5812 5809 5805 5802 5798 5794 5791 5787 5783 5780 5777 5774
5897 5896 5894 5892 5891 5889 5887 5884 5882 5881 5879 5875 5873 5870 5868 5866 5864 5862 5859 5856 5854 5851 5848 5845 5843 5840 5836 5833 5830 5827 5823 5819 5816 5812 5808 5805 5801 5797 5793 5790 5786 5782 5779 5776
5896 5895 5894 5892 5891 5891 5887 5885 5883 5882 5879 5876 5874 5872 5870 5868 5866 5863 5861 5858 5856 5853 5851 5848 5845 5842 5839 5836 5833 5830 5826 5823 5819 5816 5812 5808 5804 5800 5796 5793 5789 5785 5781 5778
5894 5894 5893 5892 5893 5890 5887 5885 5884 5882 5879 5877 5875 5873 5871 5869 5867 5865 5863 5860 5858 5856 5853 5851 5848 5845 5842 5839 5836 5833 5830 5826 5823 5819 5815 5811 5807 5803 5800 5796 5792 5788 5784 5781
5892 5891 5890 5890 5889 5888 5886 5885 5883 5881 5879 5877 5876 5874 5872 5870 5868 5866 5864 5862 5859 5857 5855 5853 5850 5847 5845 5842 5839 5836 5832 5829 5826 5822 5818 5815 5811 5807 5803 5799 5796 5792 5788 5784
5889 5888 5887 5887 5887 5886 5884 5883 5882 5880 5879 5877 5875 5874 5872 5870 5868 5866 5864 5862 5860 5858 5856 5854 5851 5849 5847 5844 5841 5838 5835 5832 5829 5825 5822 5818 5814 5811 5807 5803 5800 5796 5792 5789
5885 5885 5885 5884 5884 5883 5883 5881 5880 5879 5878 5876 5875 5873 5871 5869 5868 5866 5864 5862 5861 5859 5857 5854 5852 5850 5848 5845 5843 5840 5837 5834 5831 5828 5825 5821 5818 5814 5811 5807 5804 5800 5797 5794